This is the latest recevied weather packets stored in our database for station/object KD7AWQ. If no packets are shown the sender has not sent any weather packets the latest 10 day(s).
| Time | Temp. | Humidity | Pressure | Rain* | Wind** | Luminosity | Snow |
|---|---|---|---|---|---|---|---|
| 1778144659 | 15.56° C | 26% | 1185.7 hPa | 0 mm | - | 0 W/m² | - |
| 1778144355 | 15.56° C | 26% | 1185.6 hPa | 0 mm | - | 0 W/m² | - |
| 1778144053 | 15.56° C | 26% | 1186 hPa | 0 mm | - | 0 W/m² | - |
| 1778143750 | 16.67° C | 25% | 1185.7 hPa | 0 mm | - | 0 W/m² | - |
| 1778143446 | 16.67° C | 24% | 1185.6 hPa | 0 mm | - | 0 W/m² | - |
| 1778143144 | 16.11° C | 24% | 1185.8 hPa | 0 mm | - | 0 W/m² | - |
| 1778142840 | 16.11° C | 24% | 1185.7 hPa | 0 mm | - | 0 W/m² | - |
| 1778142536 | 16.11° C | 24% | 1185.8 hPa | 0 mm | - | 0 W/m² | - |
| 1778142232 | 16.67° C | 24% | 1185.8 hPa | 0 mm | - | 0 W/m² | - |
| 1778141929 | 16.67° C | 24% | 1186.1 hPa | 0 mm | - | 0 W/m² | - |
| 1778141625 | 16.11° C | 25% | 1186 hPa | 0 mm | - | 0 W/m² | - |
| 1778141322 | 15.56° C | 25% | 1185.8 hPa | 0 mm | - | 0 W/m² | - |
| 1778141018 | 16.11° C | 25% | 1186 hPa | 0 mm | - | 0 W/m² | - |
| 1778140714 | 16.11° C | 26% | 1185.8 hPa | 0 mm | - | 0 W/m² | - |
| 1778140410 | 15.56° C | 26% | 1186.1 hPa | 0 mm | - | 0 W/m² | - |
| 1778140106 | 15.56° C | 27% | 1186.1 hPa | 0 mm | - | 0 W/m² | - |
| 1778139804 | 16.11° C | 26% | 1186.2 hPa | 0 mm | - | 0 W/m² | - |
| 1778139501 | 16.11° C | 26% | 1186.2 hPa | 0 mm | - | 0 W/m² | - |
| 1778139198 | 16.11° C | 26% | 1186.3 hPa | 0 mm | - | 0 W/m² | - |
| 1778138895 | 16.11° C | 26% | 1186.1 hPa | 0 mm | - | 0 W/m² | - |
| 1778138592 | 16.11° C | 26% | 1186.2 hPa | 0 mm | - | 0 W/m² | - |
| 1778138290 | 16.11° C | 26% | 1186.1 hPa | 0 mm | - | 0 W/m² | - |
| 1778137986 | 16.11° C | 25% | 1186.4 hPa | 0 mm | - | 0 W/m² | - |
| 1778137683 | 16.11° C | 25% | 1186.1 hPa | 0 mm | - | 0 W/m² | - |
| 1778137380 | 16.11° C | 25% | 1186.3 hPa | 0 mm | - | 0 W/m² | - |
* Rain latest hour (hover to see other rain measurements)
** Current wind speed in m/s (hover to see current wind gust speed)